Helicity
164 173 190 224 140 143 180 131 168 145 115 91 81 50 84 108 137 129 113 78 51 40 19 23 36 39 41 62 82 83 92 110 131 179 154 208 261 265
93 154 182 177 125 160 164 141 149 144 168 126 92 92 149 162 150 128 102 46 32 28 34 49 57 53 40 75 72 87 88 127 119 121 136 124 250 304
98 136 133 54 175 161 140 162 162 158 150 137 126 140 154 125 68 89 71 75 82 48 40 47 40 39 93 103 73 84 85 96 136 114 119 67 106 292
148 174 148 150 170 161 155 179 161 151 129 117 136 133 108 86 98 89 84 65 68 52 47 57 8 21 72 85 51 57 68 48 100 125 121 49 29 183
162 159 154 164 134 153 177 144 112 117 142 155 135 121 123 96 77 87 74 80 60 39 43 19 13 -33 28 5 27 32 58 34 41 106 108 78 77 89
156 142 136 137 183 152 131 109 116 122 121 131 133 109 99 82 96 84 75 69 52 49 40 25 4 -16 27 23 43 29 41 51 21 65 91 80 63 104
174 146 137 157 125 156 114 105 121 116 110 101 103 102 88 86 77 82 80 53 40 54 41 -1 31 -48 28 -9 12 32 49 53 37 6 68 51 58 127
143 149 142 119 154 115 92 140 95 122 108 124 134 107 93 81 87 79 44 35 46 17 28 -44 41 76 101 44 47 55 65 52 15 8 35 27 119 94
126 135 120 129 187 167 161 137 93 54 55 98 100 95 111 127 99 59 48 56 27 23 44 -12 16 3 54 126 38 11 -11 -11 -2 11 32 -20 95 188
130 102 107 137 160 143 108 76 74 68 70 86 84 87 102 67 68 68 67 60 49 22 38 -12 9 32 46 61 35 13 -19 -3 -12 29 62 13 65 193
105 96 98 122 191 144 87 71 60 62 56 38 16 35 37 21 53 95 115 84 65 51 28 16 19 42 59 50 19 7 -28 -41 -26 63 66 38 81 101
104 96 155 188 139 89 83 81 71 59 65 56 60 73 46 45 8 45 84 118 93 58 39 -13 -23 15 7 29 8 -5 40 5 25 75 145 52 45 114
110 89 152 133 85 60 68 83 77 75 56 73 65 41 43 21 2 -12 3 65 114 108 41 -33 -36 32 -12 -52 23 -4 69 79 53 30 80 127 107 132
96 87 100 82 49 56 64 53 52 56 90 81 52 47 22 19 19 24 31 60 115 137 55 22 -46 -38 -2 46 61 45 52 50 48 23 28 103 95 117
87 77 67 46 41 68 52 89 82 82 77 73 71 40 21 24 10 7 11 28 47 117 89 85 29 -68 -6 41 62 63 80 105 46 24 27 67 69 96
60 63 82 73 83 87 69 73 110 95 87 85 70 55 32 21 6 3 -0 2 36 78 58 72 82 -9 -20 2 2 37 48 76 90 83 47 40 67 36
103 111 74 68 73 66 67 84 104 102 86 86 62 51 28 5 22 13 -5 -28 -35 34 53 25 43 26 9 -10 -15 3 22 38 48 94 100 59 81 86
138 100 79 57 70 68 67 71 100 115 142 82 71 56 28 5 9 45 -2 14 16 -5 17 35 57 44 33 2 -7 2 43 46 33 46 103 109 92 118
140 94 73 66 73 74 70 68 94 133 134 117 84 58 37 5 4 22 19 23 38 30 32 8 -7 27 17 -4 -13 24 -0 43 53 65 65 86 93 106
129 98 78 69 81 86 79 75 110 113 108 109 93 79 54 26 -9 -3 2 21 41 60 35 31 -20 -10 4 43 64 11 35 1 30 50 71 87 105 77
131 121 99 82 81 117 104 123 122 103 101 106 97 92 65 45 -5 -13 -9 5 27 10 8 23 19 38 39 41 55 27 17 69 76 26 28 63 77 80
123 120 109 98 100 131 155 139 124 106 97 102 102 92 79 61 32 -15 -17 -10 7 2 2 28 79 83 70 52 53 35 25 21 69 86 89 74 42 72
123 121 127 126 126 139 172 168 151 116 104 106 103 86 89 72 61 8 -17 -14 -9 -0 3 65 115 98 110 59 83 113 34 9 14 19 57 69 56 45
Wind_Speed
60 59 55 56 47 48 56 55 64 77 78 77 75 70 73 73 77 82 84 87 88 90 91 92 91 92 86 84 84 82 80 80 83 88 88 87 88 85
59 57 54 45 39 50 52 57 61 66 75 69 71 72 70 81 82 86 85 91 89 89 89 90 91 91 79 72 73 75 74 75 77 82 86 88 89 89
61 53 47 38 48 51 52 59 64 68 75 76 76 76 85 86 87 80 77 76 75 77 83 87 89 88 63 66 71 72 72 72 74 75 80 83 88 90
58 52 45 48 51 54 61 66 68 72 75 82 81 83 84 83 75 72 69 71 75 77 84 83 80 71 75 76 77 76 73 68 72 73 73 76 82 89
54 52 47 48 53 59 63 68 72 70 71 74 80 78 74 73 72 70 72 72 73 79 79 73 72 73 75 71 74 71 69 66 67 71 73 75 77 81
47 44 44 49 53 58 62 65 64 68 69 70 70 71 68 66 64 72 76 71 77 73 73 71 73 69 62 72 73 75 65 63 63 66 69 72 76 79
46 46 48 49 50 51 54 55 58 61 63 61 62 63 62 64 70 71 76 73 71 66 61 63 63 59 62 68 70 64 57 60 60 60 64 66 69 78
48 49 50 52 46 45 54 51 52 56 54 52 53 54 59 66 67 70 71 72 71 57 66 64 59 61 59 50 47 46 52 57 60 59 58 60 58 64
47 51 50 51 54 57 61 66 62 53 48 49 47 47 50 57 66 67 63 56 54 53 56 63 64 66 60 57 53 54 59 59 59 60 58 59 48 47
48 47 47 49 53 58 61 64 57 56 51 51 58 61 58 53 44 42 41 41 39 34 37 56 64 70 71 70 64 61 58 57 57 56 58 51 42 41
47 45 45 47 49 57 61 59 55 53 52 64 67 61 50 35 29 31 31 37 34 28 19 34 59 69 68 72 71 70 60 55 53 49 46 41 37 35
44 47 46 46 49 53 55 53 55 52 59 56 51 52 47 39 40 39 28 26 25 26 20 28 39 55 52 51 54 60 54 49 46 41 38 29 26 37
43 43 41 45 53 56 50 45 41 49 51 47 48 57 51 46 45 40 35 26 22 11 5 13 12 52 48 49 49 47 44 42 43 38 36 28 28 32
36 36 40 47 51 46 40 35 39 45 44 52 53 52 56 49 39 31 19 16 12 8 12 9 8 29 48 45 39 34 38 38 40 39 38 34 27 33
28 29 35 38 34 34 35 35 36 40 45 52 47 53 56 46 32 30 22 10 8 9 14 13 19 31 52 50 46 38 32 38 41 39 37 36 37 28
21 25 28 31 30 28 31 36 39 42 46 46 53 53 56 54 44 32 28 18 21 16 11 17 19 29 47 53 49 48 42 40 40 41 38 34 36 29
23 30 34 31 34 39 40 39 41 44 48 51 49 52 58 59 52 32 24 40 40 1 49 27 20 29 40 47 52 51 52 49 40 39 40 41 38 36
26 28 29 27 29 36 37 37 40 45 48 51 43 48 56 61 59 43 35 53 53 22 14 30 10 24 32 39 49 50 45 49 48 42 38 38 40 40
22 22 21 20 26 28 29 33 40 45 47 45 48 44 51 59 58 58 53 54 51 42 31 28 37 31 30 34 39 39 43 39 43 43 43 40 37 39
16 16 16 16 17 19 24 31 38 42 44 42 45 38 41 53 57 56 55 54 50 46 44 40 38 32 33 33 33 30 34 39 37 38 41 39 35 30
17 16 14 15 16 15 20 25 30 34 34 35 33 36 39 41 55 54 53 51 49 48 46 44 42 40 39 38 35 33 32 30 28 31 38 31 36 40
18 18 18 21 23 21 21 24 26 27 24 28 33 36 35 38 42 53 51 50 48 47 45 42 40 39 37 41 35 28 27 29 28 27 26 29 36 42
17 16 14 15 16 16 18 20 21 20 24 26 28 29 31 30 26 48 50 48 48 46 44 39 37 35 36 33 30 26 28 29 29 27 29 29 26 24
Wind_Direction
333 332 330 333 329 334 332 330 327 324 323 322 321 321 319 320 321 320 318 315 311 308 306 301 298 295 291 287 286 286 287 283 278 272 269 267 265 264
334 331 330 332 333 334 334 331 329 325 321 325 324 323 324 321 321 319 316 311 309 307 304 300 297 295 291 289 289 288 287 287 283 277 270 263 263 261
337 339 339 336 336 335 334 331 328 327 323 323 323 324 321 321 321 320 319 317 316 312 308 302 300 295 292 288 287 287 287 287 285 283 273 265 261 258
345 348 343 339 336 335 332 331 329 327 324 322 324 323 322 323 324 323 322 320 317 313 308 305 303 298 290 285 284 281 283 287 286 285 277 267 261 257
347 347 347 341 336 334 333 330 329 329 328 326 325 326 327 328 326 326 323 321 320 314 311 311 308 303 290 282 281 281 282 283 286 285 277 268 261 257
351 349 345 340 338 334 332 332 333 332 332 331 330 330 331 331 331 326 323 325 320 319 315 314 309 309 293 280 279 279 281 282 285 286 279 267 261 256
350 347 344 344 339 339 338 338 338 337 336 335 334 334 334 334 331 331 326 328 325 322 323 322 317 311 303 282 278 278 280 281 284 288 283 267 263 256
349 349 346 343 348 344 341 343 341 338 338 337 336 335 335 333 335 333 330 328 325 332 324 318 317 304 298 303 290 287 284 283 283 284 281 263 267 258
351 348 346 344 344 341 340 338 340 342 341 340 339 339 340 339 336 334 333 333 328 328 329 317 306 292 290 292 292 285 282 285 284 281 277 254 265 263
350 349 347 346 345 344 343 342 345 346 347 347 343 339 340 342 345 345 344 343 342 337 335 321 304 288 282 277 279 278 281 282 282 280 272 259 261 253
349 350 349 346 348 346 346 347 349 350 352 343 338 341 348 351 349 350 351 353 355 359 4 345 310 284 279 269 268 268 275 277 275 277 269 258 254 251
350 350 352 353 351 351 350 351 350 353 351 353 355 353 356 2 3 5 6 355 356 359 26 7 338 297 284 282 278 270 269 268 264 269 268 259 253 243
350 351 356 357 351 350 354 358 360 357 358 1 359 349 356 4 8 12 16 14 360 343 237 27 32 283 284 281 279 266 260 259 252 258 257 260 247 242
352 354 355 353 353 359 3 5 4 2 5 2 0 358 351 2 13 17 15 17 5 231 208 167 150 243 273 275 276 281 269 255 247 249 252 251 249 244
358 359 358 359 2 7 10 10 8 7 6 3 6 359 349 3 16 21 27 26 352 173 162 154 178 191 250 260 262 274 276 257 245 246 249 247 240 239
356 0 4 1 7 12 14 16 15 10 5 6 3 359 350 354 10 26 31 48 50 288 133 156 153 175 218 246 258 260 267 254 255 249 249 247 239 249
354 352 353 1 4 7 12 16 17 14 8 5 6 3 351 345 357 27 39 21 28 218 333 60 144 184 218 244 251 256 254 250 253 254 249 246 247 249
341 344 349 355 360 3 8 13 18 16 14 9 13 8 354 339 338 7 26 345 323 254 235 284 189 143 226 237 227 239 250 249 249 254 256 253 253 257
336 340 345 351 353 360 7 10 11 14 15 19 12 14 3 340 328 330 353 342 310 284 260 265 320 294 279 241 259 254 250 261 257 254 258 261 262 264
329 331 336 342 350 357 2 4 5 8 12 17 16 22 18 354 327 326 326 323 311 293 291 282 288 262 252 256 265 277 271 271 261 262 265 266 269 274
327 322 323 332 338 346 354 0 3 6 14 18 25 26 23 16 334 326 320 313 311 317 306 295 280 266 248 244 245 269 277 282 281 282 270 267 268 271
318 318 319 327 335 342 348 352 356 3 12 19 21 23 28 25 8 325 324 317 311 311 303 291 285 285 269 253 273 290 292 287 289 290 292 286 275 267
314 312 310 310 319 323 333 341 348 356 4 11 18 25 30 35 41 347 320 324 316 313 311 290 283 292 273 287 294 304 304 301 294 291 291 295 299 301